Meteo Giornale » Osservazioni meteo Argentina » Sauce Viejo Aerodrome
ore: 22:00 - Osservazioni Meteo Sauce Viejo Aerodrome
Lat. 31° 42' S Lon. 60° 49' W Alt. 17 metri s.l.m.
17 °C
Molto Nuvoloso
Temp. 24 Ore
12 °C
20 °C
Sud-Est
9.3 Km/h
Dew point 14 °C
Umidità 82 %
Visibilità 10 Km
Il sole sorge alle ore 07:20
Il sole tramonta alle ore 18:46
| Data e Ora | Cielo e Fenomeni | T °C | DP °C | Um. % | Pres. hPa | Vis. km | Vento km/h | |
|---|---|---|---|---|---|---|---|---|
| Oggi h: 22:00 | Molto Nuvoloso | 17 | 14 | 82 | 1017 | 10 | SE 9.3 | |
| Oggi h: 21:00 | Molto Nuvoloso | 17 | 15 | 88 | 1016 | 10 | S/SE 14.8 | |
| Oggi h: 20:00 | Molto Nuvoloso | 18 | 15 | 82 | 1015 | 10 | S/SE 14.8 | |
| Oggi h: 19:00 | Molto Nuvoloso | 18 | 16 | 88 | 1014 | 10 | S/SO 11.1 | |
| Oggi h: 17:00 | Molto Nuvoloso | 18 | 16 | 88 | 1013 | 10 | S/SO 16.7 | |
| Oggi h: 16:00 | Molto Nuvoloso | 19 | 16 | 82 | 1013 | 10 | SO 16.7 | |
| Oggi h: 15:00 | Molto Nuvoloso | 20 | 17 | 82 | 1012 | 10 | SO 18.5 | |
| Oggi h: 14:00 | Coperto | 19 | 16 | 82 | 1013 | 10 | SO 13 | |
| Oggi h: 13:00 | Coperto | 19 | 15 | 77 | 1013 | 10 | N 0 | |
| Oggi h: 12:00 | Molto Nuvoloso | 18 | 16 | 88 | 1013 | 10 | E/NE 13 | |
| Oggi h: 11:00 | Coperto | 16 | 15 | 93 | 1012 | 10 | E 14.8 | |
| Oggi h: 10:00 | Coperto | 15 | 15 | 100 | 1012 | 10 | E/SE 13 | |
| Oggi h: 09:00 | Coperto | 14 | 14 | 100 | 1011 | 9 | SE 11.1 | |
| Oggi h: 08:00 | Coperto | 13 | 13 | 100 | 1011 | 9 | SE 9.3 | |
| Oggi h: 07:30 | Nuvoloso | 12 | 12 | 100 | 1010 | 9 | SE 7.4 | |
| Oggi h: 07:00 | Sereno | 12 | 12 | 100 | 1010 | 10 | N 3.7 | |
| Oggi h: 06:00 | Sereno | 13 | 13 | 100 | 1010 | 10 | E/SE 13 | |
| Oggi h: 05:00 | Molto Nuvoloso | 14 | 14 | 100 | 1011 | 10 | E/SE 9.3 | |
| Oggi h: 04:00 | Molto Nuvoloso | 14 | 14 | 100 | 1011 | 10 | E/SE 7.4 | |
| Oggi h: 03:00 | Molto Nuvoloso | 14 | 14 | 100 | 1012 | 10 | E 9.3 | |
| Oggi h: 02:00 | Molto Nuvoloso | 14 | 14 | 100 | 1012 | 10 | E 14.8 | |
| Oggi h: 01:00 | Sereno | 14 | 13 | 93 | 1013 | 10 | E 14.8 | |
| Oggi h: 00:00 | Sereno | 14 | 13 | 93 | 1013 | 10 | E/SE 11.1 | |
| Ieri h: 23:00 | Sereno | 16 | 13 | 82 | 1012 | 10 | E/SE 13 | |



